Weather Roundup
Issued by NWS

Home | Current Version | Previous Version | Graphics & Text | Print | Product List | Glossary Off
Versions: 1 2 3 4 5 6 7 8 9 10 11 12 13 14 15 16 17 18 19 20 21 22 23 24 25 26 27 28 29 30 31 32 33 34 35 36 37 38 39 40 41 42 43 44 45 46 47 48 49 50

000
NZUS93 KARX 010859
HRRWXR

CURRENT HOURLY OBSERVATIONS ACROSS
MUCH OF THE UPPER MISSISSIPPI VALLEY
NATIONAL WEATHER SERVICE LA CROSSE WI
400 AM CDT FRI AUG 01 2014


...SOUTHEAST MINNESOTA...


CITY           SKY/WX    TMP DP  RH WIND       PRES   REMARKS
ROCHESTER      CLEAR     60  54  80 SW7       30.07S
ROCHESTER/MAYO FAIR      63  55  74 CALM      30.05S
WINONA         CLEAR     59  57  94 CALM      30.04R
AUSTIN         CLEAR     55  54  94 CALM      30.06S
ALBERT LEA     CLEAR     57  55  94 CALM      30.06S
DODGE CENTER   CLEAR     57  55  94 W5        30.06S
PRESTON        CLEAR     60  57  92 SW5       30.07R
OWATONNA       CLEAR     57  54  88 CALM      30.05S
FARIBAULT      CLEAR     59  54  82 CALM      30.05R
$$

...ELSEWHERE IN MINNESOTA...


CITY           SKY/WX    TMP DP  RH WIND       PRES   REMARKS
MINNEAPOLIS    CLEAR     67  60  78 S5        30.02S
INTNL FALLS    CLEAR     48  47  96 CALM      30.02R
DULUTH         PTCLDY    57  52  83 CALM      30.02R
RED WING       CLEAR     57  57 100 CALM      30.02S
REDWOOD FALLS  CLEAR     62  57  83 NW3       30.05R
MANKATO        CLEAR     59  54  82 CALM      30.05R
WORTHINGTON    CLEAR     57  55  94 SW6       30.09R
FAIRMONT       CLEAR     59  54  82 CALM      30.06S
$$

...SOUTHWEST WISCONSIN...


CITY           SKY/WX    TMP DP  RH WIND       PRES   REMARKS
LA CROSSE      CLEAR     65  61  87 S7        30.03R
PRAIRIE DU CHI CLEAR     58  56  92 CALM      30.05R
BOSCOBEL       MOCLDY    57  55  93 CALM      30.06R FOG
LONE ROCK      FOG       59  55  87 CALM      30.05R VSB 1/2
PLATTEVILLE    CLEAR     60  57  89 CALM      30.07S
FORT MC COY    PTCLDY    53  52  95 CALM      30.04R
CAMP DOUGLAS   PTCLDY    54  54 100 VRB1      30.03R FOG
VIROQUA        FAIR      60  57  89 SW6       30.05S
WIS DELLS      CLEAR     57  54  90 CALM      30.04R
$$

...ELSEWHERE IN WISCONSIN...


CITY           SKY/WX    TMP DP  RH WIND       PRES   REMARKS
MILWAUKEE      PTCLDY    66  58  75 W6        30.04R
MADISON        CLEAR     59  57  93 CALM      30.04S
GREEN BAY      CLEAR     57  56  96 W3        30.01R
EAU CLAIRE     NOT AVBL
BLACK RVR FLS  FAIR      58  58 100 E3        30.03R
MEDFORD        FOG       55  55 100 CALM      30.03R VSB 1
WAUSAU         CLEAR     59  57  93 CALM      30.01S
WIS RAPIDS     PTCLDY    61  58  90 CALM      30.04R
MARSHFIELD     PTCLDY    63  58  83 W7        30.02S
RICE LAKE      PTCLDY    58  57  96 CALM      30.03S FOG
$$

...NORTHEAST IOWA...


CITY           SKY/WX    TMP DP  RH WIND       PRES   REMARKS
WATERLOO       CLEAR     58  57  97 CALM      30.05R
DUBUQUE        CLEAR     59  57  93 CALM      30.07R
DECORAH        PTCLDY    57  55  94 CALM      30.06R
MASON CITY     CLEAR     58  57  97 CALM      30.08S
CHARLES CITY   CLEAR     57  55  94 W5        30.07R
OELWEIN        CLEAR     59  59 100 CALM      30.07S
$$

...ELSEWHERE IN IOWA...


CITY           SKY/WX    TMP DP  RH WIND       PRES   REMARKS
DES MOINES     MOCLDY    65  61  87 CALM      30.06S
IOWA CITY      CLOUDY    63  62  97 CALM      30.07R
FORT DODGE       N/A     57  55  94 CALM      30.08R VSB 3/4
MARSHALLTOWN   CLEAR     58  56  93 CALM      30.06R
CEDAR RAPIDS   PTCLDY    61  60  97 CALM      30.05S
$$

...NORTHERN ILLINOIS...


CITY           SKY/WX    TMP DP  RH WIND       PRES   REMARKS
CHICAGO-OHARE  PTCLDY    64  57  78 W6        30.05S
DUPAGE         CLEAR     61  59  93 S3        30.06S FOG
CHICAGO-MIDWAY PTCLDY    68  63  84 SW7       30.06R
MOLINE         CLOUDY    66  62  87 W5        30.06R
ROCKFORD       MOCLDY    62  57  83 CALM      30.07S
STERLING       PTCLDY    59  55  88 CALM      30.07R
PEORIA         CLOUDY    68  62  81 CALM      30.07S
$$

NOTE: "FAIR" INDICATES FEW OR NO CLOUDS BELOW 12,000 FEET WITH NO
SIGNIFICANT WEATHER AND/OR OBSTRUCTIONS TO VISIBILITY. WIND
SPEEDS ARE IN MILES-PER-HOUR.



USA.gov is the U.S. government's official web portal to all federal, state and local government web resources and services.